Seattle, WA
on Tuesday, January 22, 2013

Tuesday
Previous Day Next Day
Daily Summary
 ActualAverageRecord
Temperature
Mean Temperature °F 43°F  
Max Temperature 38°F 48°F 60°F (1981)
Min Temperature 29°F 37°F 19°F (1962)
Degree Days
Heating Degree Days 31 22  
Month to date heating degree days 625 512  
Since 1 July heating degree days 2376 2450  
Cooling Degree Days 0 0  
Month to date cooling degree days 0 0  
Year to date cooling degree days 0 0  
Moisture
Dew Point 31°F   
Average Humidity 93    
Maximum Humidity 100    
Minimum Humidity 85    
Precipitation
Precipitation 0.00 in 0.17 in 1.29 in (1953)
Month to date precipitation 2.71 4.12  
Year to date precipitation 2.71 4.12  
Snow
Snow 0.00 in in 2.00 in (1982)
Month to date snowfall T  
Since 1 July snowfall 0.6  
Snow Depth 0.00 in   
Wind
Wind Speed 1 mph   
Max Wind Speed 7 mph   
Max Gust Speed 7 mph   
Visibility 2 miles   
Events Fog   

Key: T is trace of precipitation, MM is missing value
Source: NWS Daily Summary
Time(PST)TemperatureDew PointHumidity Pressure Visibility Wind DirectionWind SpeedGust SpeedPrecipitationEvents Conditions
12:43 AM 28.4°F 28.4°F 100% 30.13 in 0.2 miles Calm Calm - N/A Fog Light Freezing Fog
12:53 AM 28.9°F 28.0°F 96% 30.16 in 0.2 miles Calm Calm - N/A Fog Light Freezing Fog
1:43 AM 30.2°F 28.4°F 93% 30.12 in 0.1 miles Calm Calm - N/A Fog Light Freezing Fog
1:46 AM 30.2°F 28.4°F 93% 30.12 in 0.1 miles WSW 3.5 mph - N/A Fog Light Freezing Fog
1:53 AM 30.0°F 28.9°F 96% 30.16 in 0.1 miles Calm Calm - N/A Fog Light Freezing Fog
2:53 AM 30.9°F 30.0°F 96% 30.15 in 0.1 miles Calm Calm - N/A Fog Light Freezing Fog
3:53 AM 32.0°F 30.9°F 96% 30.16 in 0.1 miles Calm Calm - N/A Fog Fog
4:53 AM 30.9°F 30.0°F 96% 30.13 in 0.1 miles ENE 3.5 mph - N/A Fog Light Freezing Fog
5:40 AM 30.2°F 28.4°F 93% 30.08 in 0.2 miles NE 3.5 mph - N/A Fog Light Freezing Fog
5:53 AM 30.9°F 30.0°F 96% 30.12 in 0.2 miles Calm Calm - N/A Fog Light Freezing Fog
6:53 AM 32.0°F 30.9°F 96% 30.11 in 0.2 miles Calm Calm - N/A Fog Fog
7:53 AM 32.0°F 30.0°F 92% 30.11 in 0.2 miles Calm Calm - N/A Fog Fog
8:03 AM 32.0°F 30.2°F 93% 30.07 in 0.1 miles Calm Calm - N/A Fog Fog
8:53 AM 30.9°F 30.0°F 96% 30.10 in 0.1 miles Calm Calm - N/A Fog Light Freezing Fog
9:51 AM 32.0°F 30.2°F 93% 30.07 in 0.1 miles Calm Calm - N/A Fog Fog
9:53 AM 32.0°F 30.9°F 96% 30.11 in 0.1 miles Calm Calm - N/A Fog Fog
10:53 AM 32.0°F 32.0°F 100% 30.10 in 0.5 miles Calm Calm - N/A   Overcast
11:08 AM 32.0°F 30.2°F 93% 30.06 in 1.2 miles Calm Calm - N/A   Overcast
11:53 AM 34.0°F 32.0°F 92% 30.08 in 1.2 miles West 3.5 mph - N/A   Overcast
12:36 PM 35.6°F 32.0°F 87% 30.04 in 2.0 miles Calm Calm - N/A   Mostly Cloudy
12:53 PM 37.0°F 33.1°F 86% 30.06 in 2.0 miles Calm Calm - N/A   Mostly Cloudy
1:30 PM 37.4°F 33.8°F 87% 30.01 in 2.0 miles SSE 4.6 mph - N/A   Mostly Cloudy
1:32 PM 37.4°F 33.8°F 87% 30.01 in 3.0 miles ESE 5.8 mph - N/A   Mostly Cloudy
1:53 PM 37.0°F 33.1°F 86% 30.04 in 3.0 miles South 3.5 mph - N/A   Mostly Cloudy
2:53 PM 37.9°F 33.1°F 83% 30.02 in 3.0 miles Calm Calm - N/A   Haze
3:53 PM 36.0°F 32.0°F 86% 30.01 in 3.0 miles SSW 3.5 mph - N/A   Mostly Cloudy
4:53 PM 36.0°F 32.0°F 86% 29.99 in 6.0 miles SE 4.6 mph - N/A   Mostly Cloudy
5:53 PM 35.1°F 32.0°F 89% 29.99 in 5.0 miles SSW 3.5 mph - N/A   Mostly Cloudy
6:53 PM 36.0°F 33.1°F 89% 29.97 in 4.0 miles Calm Calm - N/A   Mostly Cloudy
7:53 PM 35.1°F 33.1°F 92% 29.95 in 5.0 miles Calm Calm - N/A   Overcast
8:53 PM 35.1°F 32.0°F 89% 29.96 in 7.0 miles Calm Calm - N/A   Overcast
9:53 PM 37.0°F 34.0°F 89% 29.94 in 6.0 miles Calm Calm - N/A   Overcast
10:53 PM 37.0°F 34.0°F 89% 29.94 in 7.0 miles South 3.5 mph - N/A   Overcast
11:53 PM 36.0°F 34.0°F 93% 29.96 in 6.0 miles SSW 5.8 mph - N/A   Overcast
Moon Phase
Jan. 22 Jan. 26 Feb. 03 Feb. 10 Feb. 17
Sunrise:07:46 AM (PST) Moon Rise:01:20 PM (PST)
Sunset:04:56 PM (PST) Moon Set:04:15 AM (PST)

Copyright © 2014 The Weather Underground, Inc.